[[{"header":{"parameterUnit":"m.s-1","parameterCategory":1,"la1":30.2991,"la2":30.254,"lo1":-89.0895,"lo2":-89.0444,"dy":0.0017,"dx":0.0017,"nx":28,"ny":28,"refTime":"2024-11-28T09:00:00:Z","depth":0,"parameterNumber":2,"parameterNumberName":"U-component_of_WINDS"},"data":[0,0,0,0,0,0,0,0,0,0,0,0,0,0,0,0,0,0,0,0,0,0,0,0,0,0,0,0,0,0,0,0,0,0,0,0,0,0,0,0,0,0,0,0,0,0,0,0,0,0,0,0,0,0,0,0,0,0,2.7574,2.7575,0,2.7651,2.7652,2.7653,2.7642,2.7641,2.764,2.7639,2.7721,2.7724,2.7727,0,0,0,0,0,0,0,0,0,0,0,0,0,2.7422,2.7425,2.7574,2.7575,2.7576,2.7651,2.7652,2.7653,2.7643,2.7641,2.764,2.7638,2.7719,2.7723,2.7727,0,0,0,0,0,0,0,0,0,0,0,0,0,2.7493,2.7426,2.7574,2.758,2.7581,2.7651,2.7652,2.7654,2.7643,2.7641,2.7639,2.7637,2.7718,2.7723,2.7728,2.7798,0,0,2.7744,2.7746,0,0,0,0,0,0,0,0,2.7489,2.7498,2.7578,2.758,2.7581,2.7635,2.7629,2.7702,2.7643,2.762,2.7639,2.7636,2.7694,2.7701,2.772,2.7802,2.7805,2.7744,2.7747,2.7749,2.7751,0,0,0,0,0,0,0,2.7484,2.7495,2.7605,2.7579,2.7581,2.758,2.7588,2.7642,2.7667,2.7622,2.7621,2.763,2.7694,2.7715,2.7721,2.7806,2.7744,2.7748,2.7751,2.7753,2.7951,2.7953,0,0,0,0,0,0,2.7477,2.7491,2.7602,2.7607,2.7529,2.7584,2.7593,2.762,2.7666,2.7671,2.7632,2.7629,2.7707,2.7716,2.7724,2.7809,2.7749,2.7754,2.7757,2.7949,2.7951,2.7954,0,0,0,0,0,0,2.7474,2.7487,2.7599,2.7549,2.7563,2.7589,2.7619,2.7622,2.7643,2.7674,2.7678,2.7648,2.7706,2.7717,2.778,2.7812,2.7756,2.7761,2.7946,2.7949,2.7952,2.798,0,0,0,0,0,0,2.7469,2.7486,2.7512,2.755,2.7566,2.7652,2.7621,2.7625,2.7651,2.7649,2.769,2.7695,2.7705,2.7772,2.7785,2.7818,2.7765,2.7943,2.7948,2.7951,2.7976,2.7984,2.799,0,0,0,0,0,2.7464,2.7517,2.7513,2.7526,2.7598,2.7654,2.7664,2.7673,2.7654,2.768,2.7701,2.7694,2.7807,2.7779,2.7793,2.7828,2.7941,2.7946,2.7951,2.7973,2.7982,2.799,0,0,0,0,0,0,2.7483,2.7522,2.7518,2.7584,2.7616,2.7652,2.7686,2.7683,2.7721,2.7717,2.7729,2.7739,2.7802,2.7821,2.7789,2.7899,2.7871,2.7879,2.7883,2.7892,2.7899,2.7893,2.7769,0,0,0,0,0,2.7494,2.7535,2.7568,2.7623,2.7639,2.766,2.7685,2.769,2.7723,2.7737,2.7761,2.7795,2.7838,2.7866,2.7908,2.7979,2.7989,2.8011,2.8018,2.8023,2.803,2.807,2.808,2.797,2.797,2.797,0,0,2.7519,2.7546,2.7571,2.7628,2.7653,2.7696,2.7671,2.7718,2.775,2.7744,2.7804,2.7824,2.7862,2.793,2.7961,2.7948,2.8063,2.803,2.8034,2.8038,2.8076,2.8087,2.8096,2.7973,2.7973,2.7972,0,0,2.7586,2.761,2.7659,2.7685,2.7723,2.7737,2.7749,2.7786,2.7798,2.7859,2.7855,2.7895,2.7969,2.7996,2.802,2.81,2.8095,2.8113,2.8149,2.8188,2.8197,2.8205,2.8233,2.8243,2.812,2.812,2.812,0,2.7613,2.7676,2.7685,2.7733,2.7758,2.7754,2.7804,2.7829,2.7879,2.7898,2.7883,2.7976,2.8002,2.8076,2.8095,2.8114,2.8129,2.8108,2.8195,2.8203,2.821,2.8238,2.8248,2.8122,2.8121,2.8121,2.8121,0,2.7707,2.7752,2.7787,2.7834,2.7864,2.7913,2.793,2.796,2.7963,2.7978,2.8041,2.8072,2.812,2.8138,2.8141,2.8213,2.8204,2.8192,2.8165,2.8222,2.8248,2.8259,2.8124,2.8124,2.8123,2.8123,0,0,2.7787,2.7839,2.7852,2.7874,2.7917,2.7952,2.8001,2.8047,2.8072,2.8108,2.815,2.8213,2.8202,2.8229,2.8236,2.827,2.8332,2.8254,2.8255,2.8268,2.8413,2.8422,2.8434,2.8329,2.8331,2.8333,2.841,0,2.7858,2.7944,2.7954,2.8031,2.8072,2.807,2.8113,2.8144,2.8161,2.82,2.8219,2.8263,2.8245,2.8262,2.8296,2.8317,2.8361,2.8312,2.8369,2.8371,2.8359,2.8447,2.8456,2.8528,2.842,2.8422,2.8423,0,2.7952,2.7989,2.807,2.8107,2.8125,2.8163,2.8207,2.8244,2.828,2.829,2.8321,2.8324,2.8376,2.8347,2.842,2.8386,2.8411,2.8425,2.8428,2.8433,2.84,2.8455,2.8551,2.8561,2.8439,2.8438,2.8437,0,2.8002,2.8073,2.813,2.8149,2.8194,2.8221,2.8241,2.8276,2.8303,2.8342,2.836,2.8405,2.8429,2.8464,2.848,2.8457,2.8552,2.8524,2.8562,2.8562,2.8582,2.858,2.8682,2.8598,2.8598,2.8598,2.8598,0,2.808,2.8129,2.8153,2.8188,2.8244,2.8257,2.8312,2.8332,2.8362,2.8402,2.8404,2.8441,2.8459,2.8501,2.8513,2.8572,2.8583,2.8593,2.8596,2.8593,2.8592,2.8609,2.8604,2.8601,2.86,2.8599,2.8599,0,2.8145,2.8162,2.8225,2.8263,2.8274,2.8313,2.8346,2.8381,2.8398,2.8449,2.8461,2.8488,2.8536,2.8555,2.8615,2.8623,2.8691,2.869,2.8678,2.8679,2.8716,2.8712,2.8832,2.8849,2.8754,2.8755,2.8756,0,2.8193,2.8231,2.8273,2.8299,2.832,2.8363,2.8391,2.8405,2.8435,2.848,2.851,2.8558,2.8597,2.8675,2.87,2.8746,2.8746,2.8785,2.8753,2.8749,2.8747,2.8744,2.8748,2.8791,2.8792,2.8792,2.8793,0,2.8276,2.8284,2.8323,2.8367,2.84,2.8435,2.8469,2.8491,2.8511,2.8544,2.8593,2.8624,2.8685,2.8733,2.878,2.8803,2.8802,2.8803,2.8814,2.8811,2.8803,2.8808,2.8694,2.88,2.8799,2.8799,2.8799,2.8798,2.8334,2.8368,2.8403,2.8448,2.8475,2.8507,2.8542,2.8563,2.8604,2.8654,2.8661,2.8714,2.8751,2.8814,2.8839,2.8881,2.8871,2.8887,2.8891,2.8895,2.8897,2.8797,2.889,2.889,2.889,2.8889,2.8889,0,2.8418,2.844,2.8481,2.8529,2.8565,2.856,2.8598,2.8629,2.8675,2.8709,2.8747,2.8805,2.8852,2.8881,2.8929,2.8958,2.8959,2.897,2.8967,2.8973,2.8904,2.8889,2.8968,2.8968,2.8968,2.8968,2.8968,2.8968,2.8465,2.8523,2.8534,2.8606,2.8629,2.868,2.8702,2.8732,2.8759,2.8823,2.8862,2.888,2.8913,2.8964,2.9007,2.9015,2.9032,2.9044,2.9051,2.8986,2.8978,2.897,2.8956,2.9048,2.9048,2.9117,2.9117,2.9118]},{"header":{"parameterUnit":"m.s-1","parameterCategory":1,"la1":30.2991,"la2":30.254,"lo1":-89.0895,"lo2":-89.0444,"dy":0.0017,"dx":0.0017,"nx":28,"ny":28,"refTime":"2024-11-28T09:00:00:Z","depth":0,"parameterNumber":3,"parameterNumberName":"V-component_of_WINDS"},"data":[0,0,0,0,0,0,0,0,0,0,0,0,0,0,0,0,0,0,0,0,0,0,0,0,0,0,0,0,0,0,0,0,0,0,0,0,0,0,0,0,0,0,0,0,0,0,0,0,0,0,0,0,0,0,0,0,0,0,3.0238,3.0239,0,3.0316,3.0317,3.0318,3.0297,3.0296,3.0294,3.0293,3.0373,3.0376,3.038,0,0,0,0,0,0,0,0,0,0,0,0,0,3.0073,3.0076,3.0238,3.0239,3.024,3.0316,3.0317,3.0318,3.0298,3.0296,3.0294,3.0292,3.0372,3.0376,3.038,0,0,0,0,0,0,0,0,0,0,0,0,0,3.0147,3.0077,3.0238,3.0239,3.024,3.0316,3.0317,3.0318,3.0298,3.0296,3.0293,3.0291,3.037,3.0375,3.0381,3.046,0,0,3.0397,3.0399,0,0,0,0,0,0,0,0,3.0143,3.0153,3.0238,3.0239,3.024,3.0294,3.0288,3.0366,3.0299,3.0276,3.0293,3.029,3.0349,3.0356,3.0375,3.0464,3.0467,3.0397,3.0401,3.0403,3.0404,0,0,0,0,0,0,0,3.0138,3.0149,3.0269,3.0239,3.0241,3.0236,3.0244,3.0302,3.0324,3.0278,3.0276,3.0286,3.0349,3.037,3.0377,3.0468,3.0397,3.0402,3.0405,3.0407,3.0626,3.0629,0,0,0,0,0,0,3.0131,3.0145,3.0266,3.0271,3.0185,3.0241,3.025,3.0279,3.0324,3.0328,3.0288,3.0285,3.0362,3.0371,3.038,3.0476,3.0403,3.0408,3.0411,3.0624,3.0627,3.063,0,0,0,0,0,0,3.0128,3.0142,3.0263,3.0208,3.0223,3.0246,3.028,3.0282,3.0303,3.0331,3.0335,3.0306,3.0361,3.0372,3.044,3.0479,3.041,3.0415,3.0621,3.0625,3.0628,3.0669,0,0,0,0,0,0,3.0123,3.0141,3.0172,3.0209,3.0226,3.0323,3.0282,3.0285,3.0313,3.0309,3.0349,3.0353,3.036,3.0432,3.0446,3.0485,3.0419,3.0617,3.0622,3.0627,3.0665,3.0674,3.0682,0,0,0,0,0,3.0117,3.018,3.0173,3.0188,3.0264,3.0325,3.0335,3.0341,3.0316,3.0347,3.0365,3.0352,3.0472,3.044,3.0454,3.0496,3.0615,3.0621,3.0627,3.0661,3.0672,3.0682,0,0,0,0,0,0,3.0147,3.0185,3.0178,3.0254,3.0286,3.0321,3.036,3.0353,3.0393,3.0388,3.0394,3.0403,3.0473,3.0491,3.0454,3.0575,3.054,3.0549,3.0561,3.0572,3.058,3.0575,3.0424,0,0,0,0,0,3.0162,3.0208,3.0239,3.0303,3.032,3.0337,3.0364,3.0366,3.0399,3.0413,3.0436,3.0469,3.0514,3.0544,3.0587,3.0667,3.0675,3.0702,3.0711,3.0718,3.0726,3.077,3.0783,3.0649,3.0649,3.0649,0,0,3.0194,3.0221,3.0249,3.031,3.0335,3.0382,3.0349,3.04,3.0436,3.0421,3.0487,3.0504,3.0542,3.0616,3.065,3.0634,3.0765,3.0726,3.0731,3.0735,3.0778,3.079,3.0802,3.0653,3.0652,3.0652,0,0,3.0277,3.0302,3.0358,3.0384,3.0423,3.0434,3.0448,3.0484,3.0495,3.0561,3.0551,3.0593,3.0671,3.0698,3.0722,3.0816,3.0806,3.083,3.0876,3.0919,3.093,3.0939,3.0973,3.0985,3.0838,3.0838,3.0838,0,3.0312,3.0384,3.0388,3.0441,3.0468,3.0457,3.0514,3.0539,3.059,3.0609,3.0589,3.0687,3.0711,3.0792,3.0815,3.0835,3.0851,3.0826,3.0928,3.0937,3.0946,3.0979,3.0991,3.084,3.084,3.084,3.084,0,3.0425,3.0475,3.0516,3.0566,3.0597,3.0652,3.0665,3.0697,3.0696,3.0709,3.0777,3.0806,3.0855,3.0874,3.0874,3.0955,3.0944,3.0926,3.0891,3.0961,3.0992,3.1005,3.0844,3.0843,3.0842,3.0842,0,0,3.0529,3.0581,3.0596,3.0619,3.066,3.0699,3.0753,3.0801,3.0828,3.0864,3.091,3.0976,3.096,3.0987,3.099,3.1027,3.11,3.1005,3.1006,3.1022,3.1193,3.1207,3.1221,3.1094,3.1096,3.1098,3.119,0,3.0617,3.0713,3.0719,3.0806,3.0852,3.0842,3.0889,3.092,3.0934,3.0975,3.0991,3.1038,3.1013,3.1029,3.1066,3.1084,3.1135,3.1077,3.1137,3.1139,3.1129,3.1237,3.1252,3.1337,3.1202,3.1204,3.1206,0,3.0732,3.0771,3.0863,3.0898,3.0918,3.096,3.1005,3.1045,3.1079,3.1087,3.1118,3.1115,3.1171,3.1134,3.1211,3.1172,3.1197,3.1209,3.1213,3.1219,3.1177,3.1247,3.1365,3.1378,3.1224,3.1223,3.1222,0,3.0799,3.0875,3.094,3.0959,3.1002,3.1033,3.1052,3.1084,3.1113,3.1152,3.1171,3.1215,3.124,3.1275,3.1285,3.1256,3.1363,3.1326,3.1371,3.1371,3.1394,3.1393,3.1518,3.1409,3.1409,3.1409,3.1408,0,3.0896,3.0953,3.0971,3.1011,3.1074,3.108,3.1143,3.116,3.119,3.1233,3.1226,3.1267,3.1277,3.132,3.1327,3.1391,3.1402,3.141,3.1411,3.1411,3.141,3.1428,3.1423,3.1412,3.1411,3.1411,3.141,0,3.0983,3.0997,3.1067,3.1102,3.1112,3.1158,3.1188,3.1226,3.1239,3.1294,3.1307,3.1328,3.1378,3.1391,3.1451,3.1456,3.1531,3.1527,3.152,3.152,3.1564,3.156,3.1706,3.1726,3.1603,3.1604,3.1605,0,3.1044,3.1088,3.1128,3.1157,3.1177,3.1223,3.1253,3.1261,3.1291,3.1334,3.1368,3.1417,3.1457,3.1538,3.1558,3.1604,3.1601,3.1649,3.1608,3.1606,3.1602,3.16,3.1605,3.1657,3.1658,3.1659,3.166,0,3.1153,3.1157,3.12,3.1245,3.128,3.1316,3.135,3.1374,3.1387,3.1421,3.1473,3.1504,3.1565,3.1614,3.166,3.168,3.1673,3.1673,3.1686,3.1686,3.1681,3.1685,3.1542,3.1669,3.1668,3.1668,3.1667,3.1667,3.1229,3.1267,3.1302,3.1349,3.1376,3.1408,3.1447,3.1464,3.1507,3.1558,3.156,3.1616,3.165,3.1711,3.1733,3.1777,3.1763,3.1782,3.1786,3.1791,3.1795,3.1673,3.1786,3.1785,3.1785,3.1785,3.1785,0,3.1337,3.1359,3.1403,3.1451,3.1489,3.1478,3.1516,3.1548,3.1597,3.1629,3.1669,3.1728,3.1776,3.18,3.1847,3.1878,3.1876,3.189,3.1888,3.1893,3.1805,3.179,3.1891,3.1891,3.1891,3.1891,3.1891,3.1891,3.1398,3.1463,3.1472,3.155,3.1571,3.1626,3.1648,3.1678,3.1704,3.1771,3.181,3.1826,3.1855,3.1905,3.1948,3.1954,3.1972,3.1988,3.1993,3.191,3.1899,3.1889,3.1874,3.1992,3.1992,3.2077,3.2078,3.2078]}]]